Starlink 4776

operational
NORAD ID: 53837 Int'l Des: 2022-114 Owner: SPXS Country: US Constellation: starlink
LEOCIRCULAR

关于 Starlink 4776

正在加载描述...

实时位置

正在加载3D地球...

即将过境

高度历史

Altitude vs Time

uPlot chart will show altitude changes over time

两行轨道根数

1 53837U 22114V 26037.14711565 .00000270 00000-0 35037-4 0 9995
2 53837 53.2187 85.4270 0001539 105.5645 254.5517 15.08838919188079
Epoch: Feb 6, 2026 • Age: 10 hours

当前状态

高度 540.0 km
速度 7.59 km/s
星下点 10.11°N, 117.69°E
发射日期 Sep 19, 2022
运行时间 3.3 years
类型 internet

技术详情

分类 Payload
质量 305.00 kg
干质量 290.00 kg
总质量 305.00 kg
长度 0.20 m
直径 2.80 m
跨度 9.00 m
形状 Box + pan
制造商 SPXS
平台类型 Starlink
阶段状态 In Orbit
所有者/国家 SPXS/US

大型星座

Loading constellations...